Miscellaneous Local Product
Issued by NWS Hastings, NE

Home | Current Version | Previous Version | Text Only | Print | Product List | Glossary Off
Versions: 1 2 3 4 5 6 7 8 9 10 11 12 13 14 15 16 17 18 19 20 21 22 23 24 25 26 27 28 29 30 31 32 33 34 35 36 37 38 39 40 41 42 43 44 45 46 47 48 49 50

000
AXUS43 KGID 260302
MISGRI

GID CWA HOURLY WEATHER ROUNDUP
NATIONAL WEATHER SERVICE HASTINGS NE
1000 PM CDT SAT APR 25 2015

NOTE: "FAIR" INDICATES FEW OR NO CLOUDS BELOW 12,000 FEET WITH NO
SIGNIFICANT WEATHER AND/OR OBSTRUCTIONS TO VISIBILITY.

...SOUTH CENTRAL NEBRASKA...

CITY           SKY/WX    TMP DP  RH WIND       PRES   REMARKS
GRAND ISLAND   CLOUDY    48  44  86 E10       29.86R
HASTINGS       CLOUDY    48  45  89 E12       29.84R
KEARNEY        CLOUDY    48  45  87 E17       29.84R
ORD            PTCLDY    49  44  83 E10       29.85R
YORK           CLOUDY    48  46  93 E9G16     29.85R
AURORA         CLOUDY    49  47  94 E12       29.85R
LEXINGTON      CLOUDY    51  47  86 E13       29.83R
HOLDREGE       CLOUDY    48  46  91 E13G21    29.83R FOG
HEBRON         CLOUDY    50  47  89 NE10      29.83R FOG

...NEBRASKA PANHANDLE...

CITY           SKY/WX    TMP DP  RH WIND       PRES   REMARKS
CHADRON        LGT RAIN  51  47  86 N9        29.80R
ALLIANCE       LGT RAIN  52  46  80 E6        29.82R
SCOTTSBLUFF    CLOUDY    53  47  79 E8        29.75F
SIDNEY         LGT RAIN  52  44  74 N12       29.80R

...WESTERN AND NORTH CENTRAL NEBRASKA...

CITY           SKY/WX    TMP DP  RH WIND       PRES   REMARKS
VALENTINE      CLOUDY    54  45  71 SE9       29.85R
AINSWORTH      MOCLDY    53  46  77 E5        29.85S
ONEILL         CLOUDY    53  46  77 E6        29.88R
BROKEN BOW     CLOUDY    51  45  79 E6        29.84R
IMPERIAL       MOCLDY    54  47  77 E15G23    29.77R
NORTH PLATTE   NOT AVBL
MCCOOK         CLOUDY    54  48  80 E15       29.79R

...EASTERN NEBRASKA...

CITY           SKY/WX    TMP DP  RH WIND       PRES   REMARKS
NORFOLK        CLOUDY    52  45  77 E9        29.87R
SO SIOUX CITY  CLOUDY    54  40  59 E7        29.89R
TEKAMAH        MOCLDY    49  43  80 E9        29.88R
COLUMBUS       CLOUDY    50  43  76 E9        29.88R
ALBION         CLOUDY    51  44  77 E9        29.87R
OMAHA EPPLEY   CLOUDY    51  44  77 NE10      29.86R
MILLARD        CLOUDY    52  44  75 NE6       29.86R
LINCOLN        CLOUDY    50  45  83 NE15      29.87R
NEBRASKA CITY  CLOUDY    49  47  93 NE6       29.84R
BEATRICE       CLOUDY    49  45  88 NE10G16   29.84R
FALLS CITY     CLOUDY    49  45  86 NE8       29.81R

...NORTHERN KANSAS...

CITY           SKY/WX    TMP DP  RH WIND       PRES   REMARKS
GOODLAND       CLEAR     56  52  86 E18       29.75R
HILL CITY      MOCLDY    53  49  86 E13       29.79R
NORTON         CLOUDY    50  45  81 NE15      29.79R
PHILLIPSBURG   CLOUDY    54  48  82 NE14G22   29.81R
SMITH CENTER   CLOUDY    48  46  93 NE14      29.81R FOG
HAYS           CLOUDY    54  45  71 E16       29.79R
RUSSELL        CLOUDY    52  49  89 NE15      29.78R
CONCORDIA      CLOUDY    50  47  89 NE13      29.81R
SALINA         CLOUDY    54  48  80 NE12      29.79R
TOPEKA         CLOUDY    50  47  89 N7        29.81R



USA.gov is the U.S. government's official web portal to all federal, state and local government web resources and services.